Observer data 
site:   Klosters 
elevation:       1210 m a.s.l 
coordinates:       46�51'49''N, 9�53'17''E 
units:     jjjj-mm-dd HH:MMM:SS,cm,cm,mm 

DATETIME,HN,HS,HNW
2018-10-02 00:00:00,0,0,  0.0
2018-10-03 00:00:00,0,0,  0.0
2018-10-04 00:00:00,0,0,  0.0
2018-10-05 00:00:00,0,0,  0.0
2018-10-06 00:00:00,0,0,  0.0
2018-10-07 00:00:00,0,0,  0.0
2018-10-08 00:00:00,0,0,  0.0
2018-10-09 00:00:00,0,0,  0.0
2018-10-10 00:00:00,0,0,  0.0
2018-10-11 00:00:00,0,0,  0.0
2018-10-12 00:00:00,0,0,  0.0
2018-10-13 00:00:00,0,0,  0.0
2018-10-14 00:00:00,0,0,  0.0
2018-10-15 00:00:00,0,0,  0.0
2018-10-16 00:00:00,0,0,  0.0
2018-10-17 00:00:00,0,0,  0.0
2018-10-18 00:00:00,0,0,  0.0
2018-10-19 00:00:00,0,0,  0.0
2018-10-20 00:00:00,0,0,  0.0
2018-10-21 00:00:00,0,0,  0.0
2018-10-22 00:00:00,0,0,  0.0
2018-10-23 00:00:00,0,0,  0.0
2018-10-24 00:00:00,0,0,  0.0
2018-10-25 00:00:00,0,0,  0.0
2018-10-26 00:00:00,0,0,  0.0
2018-10-27 00:00:00,0,0,  0.0
2018-10-28 00:00:00,0,0,  0.0
2018-10-29 00:00:00,35,35,  0.0
2018-10-30 00:00:00,0,25,  0.0
2018-10-31 00:00:00,0,15,  0.0
2018-11-01 00:00:00,0,5,  0.0
2018-11-02 00:00:00,0,0,  0.0
2018-11-03 00:00:00,0,0,  0.0
2018-11-04 00:00:00,0,0,  0.0
2018-11-05 00:00:00,0,0,  0.0
2018-11-06 00:00:00,0,0,  0.0
2018-11-07 00:00:00,0,0,  0.0
2018-11-08 00:00:00,0,0,  0.0
2018-11-09 00:00:00,0,0,  0.0
2018-11-10 00:00:00,0,0,  0.0
2018-11-11 00:00:00,0,0,  0.0
2018-11-12 00:00:00,0,0,  0.0
2018-11-13 00:00:00,0,0,  0.0
2018-11-14 00:00:00,0,0,  0.0
2018-11-15 00:00:00,0,0,  0.0
2018-11-16 00:00:00,0,0,  0.0
2018-11-17 00:00:00,0,0,  0.0
2018-11-18 00:00:00,0,0,  0.0
2018-11-19 00:00:00,0,0,  0.0
2018-11-20 00:00:00,3,3,  0.0
2018-11-21 00:00:00,0,2,  0.0
2018-11-22 00:00:00,0,2,  0.0
2018-11-23 00:00:00,1,1,  0.0
2018-11-24 00:00:00,0,0,  0.0
2018-11-25 00:00:00,0,0,  0.0
2018-11-26 00:00:00,0,0,  0.0
2018-11-27 00:00:00,0,0,  0.0
2018-11-28 00:00:00,7,7,  0.0
2018-11-29 00:00:00,7,11,  0.0
2018-11-30 00:00:00,0,9,  0.0
2018-12-01 00:00:00,0,4,  0.0
2018-12-02 00:00:00,0,0,  0.0
2018-12-03 00:00:00,0,0,  0.0
2018-12-04 00:00:00,0,0,  0.0
2018-12-05 00:00:00,0,0,  0.0
2018-12-06 00:00:00,0,0,  0.0
2018-12-07 00:00:00,0,0,  0.0
2018-12-08 00:00:00,0,0,  0.0
2018-12-09 00:00:00,1,1,  0.0
2018-12-10 00:00:00,6,6,  0.0
2018-12-11 00:00:00,26,30, 35.0
2018-12-12 00:00:00,27,50, 22.0
2018-12-13 00:00:00,0,47,  0.0
2018-12-14 00:00:00,0,40,  0.0
2018-12-15 00:00:00,0,37,  0.0
2018-12-16 00:00:00,0,34,  0.0
2018-12-17 00:00:00,5,38,  0.0
2018-12-18 00:00:00,0,30,  0.0
2018-12-19 00:00:00,0,29,  0.0
2018-12-20 00:00:00,0,28,  0.0
2018-12-21 00:00:00,3,30,  0.0
2018-12-22 00:00:00,0,29,  0.0
2018-12-23 00:00:00,1,27,  0.0
2018-12-24 00:00:00,0,22,  0.0
2018-12-25 00:00:00,0,18,  0.0
2018-12-26 00:00:00,4,20,  0.0
2018-12-27 00:00:00,0,19,  0.0
2018-12-28 00:00:00,0,18,  0.0
2018-12-29 00:00:00,0,18,  0.0
2018-12-30 00:00:00,0,17,  0.0
2018-12-31 00:00:00,2,28,  0.0
2019-01-01 00:00:00,9,34,  0.0
2019-01-02 00:00:00,3,33,  0.0
2019-01-03 00:00:00,6,37,  0.0
2019-01-04 00:00:00,20,52, 15.0
2019-01-05 00:00:00,4,50,  0.0
2019-01-06 00:00:00,1,45,  0.0
2019-01-07 00:00:00,54,96, 35.0
2019-01-08 00:00:00,11,92,  8.0
2019-01-09 00:00:00,3,87,  0.0
2019-01-10 00:00:00,33,109, 25.0
2019-01-11 00:00:00,22,114, 19.0
2019-01-12 00:00:00,6,108,  0.0
2019-01-13 00:00:00,11,109,  6.0
2019-01-14 00:00:00,26,124, 19.0
2019-01-15 00:00:00,56,160, 58.0
2019-01-16 00:00:00,30,167, 25.0
2019-01-17 00:00:00,1,150,  0.0
2019-01-18 00:00:00,0,146,  0.0
2019-01-19 00:00:00,11,144,  6.0
2019-01-20 00:00:00,0,137,  0.0
2019-01-21 00:00:00,0,131,  0.0
2019-01-22 00:00:00,0,126,  0.0
2019-01-23 00:00:00,0,120,  0.0
2019-01-24 00:00:00,0,117,  0.0
2019-01-25 00:00:00,0,116,  0.0
2019-01-26 00:00:00,0,113,  0.0
2019-01-27 00:00:00,3,112,  0.0
2019-01-28 00:00:00,0,110,  0.0
2019-01-29 00:00:00,6,114,  0.0
2019-01-30 00:00:00,14,126,  9.0
2019-01-31 00:00:00,4,123,  0.0
2019-02-01 00:00:00,0,120,  0.0
2019-02-02 00:00:00,0,116,  0.0
2019-02-03 00:00:00,6,118,  0.0
2019-02-04 00:00:00,9,123,  0.0
2019-02-05 00:00:00,6,124,  0.0
2019-02-06 00:00:00,0,118,  0.0
2019-02-07 00:00:00,0,115,  0.0
2019-02-08 00:00:00,0,113,  0.0
2019-02-09 00:00:00,0,110,  0.0
2019-02-10 00:00:00,0,108,  0.0
2019-02-11 00:00:00,0,106,  0.0
2019-02-12 00:00:00,20,120,  0.0
2019-02-13 00:00:00,20,134, 15.0
2019-02-14 00:00:00,0,125,  0.0
2019-02-15 00:00:00,0,118,  0.0
2019-02-16 00:00:00,0,114,  0.0
2019-02-17 00:00:00,0,110,  0.0
2019-02-18 00:00:00,0,108,  0.0
2019-02-19 00:00:00,0,105,  0.0
2019-02-20 00:00:00,0,102,  0.0
2019-02-21 00:00:00,0,100,  0.0
2019-02-22 00:00:00,0,98,  0.0
2019-02-23 00:00:00,0,96,  0.0
2019-02-24 00:00:00,0,95,  0.0
2019-02-25 00:00:00,0,93,  0.0
2019-02-26 00:00:00,0,91,  0.0
2019-02-27 00:00:00,0,90,  0.0
2019-02-28 00:00:00,0,89,  0.0
2019-03-01 00:00:00,0,87,  0.0
2019-03-02 00:00:00,0,85,  0.0
2019-03-03 00:00:00,2,85,  0.0
2019-03-04 00:00:00,0,83,  0.0
2019-03-05 00:00:00,0,81,  0.0
2019-03-06 00:00:00,7,84,  0.0
2019-03-07 00:00:00,0,82,  0.0
2019-03-08 00:00:00,0,80,  0.0
2019-03-09 00:00:00,4,80,  0.0
2019-03-10 00:00:00,0,78,  0.0
2019-03-11 00:00:00,0,74,  0.0
2019-03-12 00:00:00,1,73,  0.0
2019-03-13 00:00:00,24,93,  0.0
2019-03-14 00:00:00,2,82,  0.0
2019-03-15 00:00:00,6,84,  0.0
2019-03-16 00:00:00,17,96, 21.0
2019-03-17 00:00:00,6,93,  0.0
2019-03-18 00:00:00,0,88,  0.0
2019-03-19 00:00:00,14,95, 11.0
2019-03-20 00:00:00,3,90,  0.0
2019-03-21 00:00:00,0,85,  0.0
2019-03-22 00:00:00,0,82,  0.0
2019-03-23 00:00:00,0,80,  0.0
2019-03-24 00:00:00,0,78,  0.0
2019-03-25 00:00:00,0,75,  0.0
2019-03-26 00:00:00,0,70,  0.0
2019-03-27 00:00:00,4,73,  0.0
2019-03-28 00:00:00,0,71,  0.0
2019-03-29 00:00:00,0,66,  0.0
2019-03-30 00:00:00,0,64,  0.0
2019-03-31 00:00:00,0,63,  0.0
2019-04-01 00:00:00,0,60,  0.0
2019-04-02 00:00:00,0,57,  0.0
2019-04-03 00:00:00,0,54,  0.0
2019-04-04 00:00:00,0,50,  0.0
2019-04-05 00:00:00,0,48,  0.0
2019-04-06 00:00:00,24,68, 26.0
2019-04-07 00:00:00,0,58,  0.0
2019-04-08 00:00:00,0,50,  0.0
2019-04-09 00:00:00,0,45,  0.0
2019-04-10 00:00:00,0,40,  0.0
2019-04-11 00:00:00,0,35,  0.0
2019-04-12 00:00:00,0,30,  0.0
2019-04-13 00:00:00,0,27,  0.0
2019-04-14 00:00:00,0,25,  0.0
2019-04-15 00:00:00,1,20,  0.0
2019-04-16 00:00:00,0,18,  0.0
2019-04-17 00:00:00,0,16,  0.0
2019-04-18 00:00:00,0,14,  0.0
2019-04-19 00:00:00,0,12,  0.0
2019-04-20 00:00:00,0,5,  0.0
2019-04-21 00:00:00,0,0,  0.0
2019-04-22 00:00:00,0,0,  0.0
2019-04-23 00:00:00,0,0,  0.0
2019-04-24 00:00:00,0,0,  0.0
2019-04-25 00:00:00,0,0,  0.0
2019-04-26 00:00:00,0,0,  0.0
2019-04-27 00:00:00,0,0,  0.0
2019-04-28 00:00:00,7,7,  0.0
2019-04-29 00:00:00,1,1,  0.0
2019-04-30 00:00:00,2,2,  0.0
2019-05-01 00:00:00,0,0,  0.0
2019-05-02 00:00:00,0,0,  0.0
2019-05-03 00:00:00,0,0,  0.0
2019-05-04 00:00:00,0,0,  0.0
2019-05-05 00:00:00,0,0,  0.0
2019-05-06 00:00:00,6,6,  0.0
2019-05-07 00:00:00,4,9,  0.0
2019-05-08 00:00:00,0,0,  0.0
2019-05-09 00:00:00,0,0,  0.0
2019-05-10 00:00:00,0,0,  0.0
2019-05-11 00:00:00,0,0,  0.0
2019-05-12 00:00:00,0,0,  0.0
2019-05-13 00:00:00,0,0,  0.0
2019-05-14 00:00:00,0,0,  0.0
2019-05-15 00:00:00,0,0,  0.0
2019-05-16 00:00:00,0,0,  0.0
2019-05-17 00:00:00,0,0,  0.0
2019-05-18 00:00:00,0,0,  0.0
2019-05-19 00:00:00,0,0,  0.0
2019-05-20 00:00:00,0,0,  0.0
2019-05-21 00:00:00,0,0,  0.0
2019-05-22 00:00:00,0,0,  0.0
2019-05-23 00:00:00,0,0,  0.0
2019-05-24 00:00:00,0,0,  0.0
2019-05-25 00:00:00,0,0,  0.0
2019-05-26 00:00:00,0,0,  0.0
2019-05-27 00:00:00,0,0,  0.0
2019-05-28 00:00:00,0,0,  0.0
2019-05-29 00:00:00,0,0,  0.0
2019-05-30 00:00:00,0,0,  0.0
2019-05-31 00:00:00,0,0,  0.0
2019-06-01 00:00:00,0,0,  0.0
2019-10-01 08:00:00,0,0, NaN
2019-10-02 08:00:00,0,0, NaN
2019-10-03 08:00:00,0,0, NaN
2019-10-04 08:00:00,0,0, NaN
2019-10-05 08:00:00,0,0, NaN
2019-10-06 08:00:00,0,0, NaN
2019-10-07 08:00:00,0,0, NaN
2019-10-08 08:00:00,0,0, NaN
2019-10-09 08:00:00,0,0, NaN
2019-10-10 08:00:00,0,0, NaN
2019-10-11 08:00:00,0,0, NaN
2019-10-12 08:00:00,0,0, NaN
2019-10-13 08:00:00,0,0, NaN
2019-10-14 08:00:00,0,0, NaN
2019-10-15 08:00:00,0,0, NaN
2019-10-16 08:00:00,0,0, NaN
2019-10-17 08:00:00,0,0, NaN
2019-10-18 08:00:00,0,0, NaN
2019-10-19 08:00:00,0,0, NaN
2019-10-20 08:00:00,0,0, NaN
2019-10-21 08:00:00,0,0, NaN
2019-10-22 08:00:00,0,0, NaN
2019-10-23 08:00:00,0,0, NaN
2019-10-24 08:00:00,0,0, NaN
2019-10-25 08:00:00,0,0, NaN
2019-10-26 08:00:00,0,0, NaN
2019-10-27 08:00:00,0,0, NaN
2019-10-28 08:00:00,0,0, NaN
2019-10-29 08:00:00,0,0, NaN
2019-10-30 08:00:00,0,0, NaN
2019-10-31 08:00:00,0,0, NaN
2019-11-01 06:40:00,0,0, NaN
2019-11-02 06:44:00,0,0, NaN
2019-11-03 06:10:00,0,0, NaN
2019-11-04 05:55:00,0,0, NaN
2019-11-05 06:40:00,0,0, NaN
2019-11-06 06:40:00,0,0, NaN
2019-11-07 06:30:00,0,0, NaN
2019-11-08 06:45:00,0,0, NaN
2019-11-09 06:40:00,0,0, NaN
2019-11-10 06:40:00,0,0, NaN
2019-11-11 06:35:00,0,0, NaN
2019-11-12 06:40:00,17,17,  9.0
2019-11-13 06:28:00,2,14, NaN
2019-11-14 06:25:00,0,11, NaN
2019-11-15 06:30:00,0,4, NaN
2019-11-16 06:30:00,0,2, NaN
2019-11-17 06:45:00,5,5, NaN
2019-11-18 06:37:00,18,25, 14.0
2019-11-19 06:30:00,0,17, NaN
2019-11-20 06:29:00,0,15, NaN
2019-11-21 06:28:00,0,10, NaN
2019-11-22 06:10:00,0,8, NaN
2019-11-23 05:10:00,0,6, NaN
2019-11-24 05:10:00,0,0, NaN
2019-11-25 06:17:00,0,0, NaN
2019-11-26 06:17:00,0,0, NaN
2019-11-27 06:15:00,0,0, NaN
2019-11-28 06:07:00,0,0, NaN
2019-11-29 06:14:00,0,0, NaN
2019-11-30 05:08:00,3,3, NaN
2019-12-01 05:14:00,0,3, NaN
2019-12-02 06:30:00,1,1, NaN
2019-12-03 06:27:00,1,2, NaN
2019-12-04 06:14:00,0,1, NaN
2019-12-05 06:10:00,0,1, NaN
2019-12-06 06:15:00,0,0, NaN
2019-12-07 05:05:00,0,0, NaN
2019-12-08 06:35:00,0,0, NaN
2019-12-09 06:26:00,1,1, NaN
2019-12-10 06:35:00,23,25, 20.0
2019-12-11 05:40:00,0,20, NaN
2019-12-12 06:23:00,10,26,  8.0
2019-12-13 06:25:00,2,24, NaN
2019-12-14 05:28:00,9,29, NaN
2019-12-15 05:30:00,1,27, NaN
2019-12-16 05:10:00,0,25, NaN
2019-12-17 06:15:00,0,18, NaN
2019-12-18 06:30:00,0,10, NaN
2019-12-19 05:35:00,0,7, NaN
2019-12-20 06:39:00,0,5, NaN
2019-12-21 07:27:00,1,2, NaN
2019-12-22 07:24:00,7,9, NaN
2019-12-23 06:45:00,8,15, NaN
2019-12-24 07:22:00,17,28, NaN
2019-12-25 06:50:00,6,30, NaN
2019-12-26 07:06:00,2,25, NaN
2019-12-27 07:02:00,5,29, NaN
2019-12-28 06:52:00,1,26, NaN
2019-12-29 06:48:00,0,25, NaN
2019-12-30 06:44:00,0,24, NaN
2019-12-31 06:45:00,0,23, NaN
2020-01-01 06:30:00,0,22, NaN
2020-01-02 06:30:00,0,21, NaN
2020-01-03 06:40:00,0,20, NaN
2020-01-04 06:45:00,2,22, NaN
2020-01-05 06:42:00,0,22, NaN
2020-01-06 06:35:00,0,21, NaN
2020-01-07 06:45:00,0,21, NaN
2020-01-08 06:50:00,0,20, NaN
2020-01-09 06:20:00,0,20, NaN
2020-01-10 06:40:00,0,19, NaN
2020-01-11 06:30:00,0,19, NaN
2020-01-12 06:45:00,0,19, NaN
2020-01-13 06:40:00,0,18, NaN
2020-01-14 06:40:00,0,18, NaN
2020-01-15 06:10:00,0,18, NaN
2020-01-16 06:30:00,0,18, NaN
2020-01-17 06:20:00,0,17, NaN
2020-01-18 06:45:00,8,26, NaN
2020-01-19 06:20:00,1,27, NaN
2020-01-20 06:30:00,3,30, NaN
2020-01-21 06:15:00,0,30, NaN
2020-01-22 06:30:00,0,29, NaN
2020-01-23 06:02:00,0,29, NaN
2020-01-24 06:10:00,0,28, NaN
2020-01-25 06:25:00,0,28, NaN
2020-01-26 06:35:00,0,28, NaN
2020-01-27 06:18:00,0,27, NaN
2020-01-28 06:15:00,0,26, NaN
2020-01-29 06:45:00,29,55, 20.0
2020-01-30 06:30:00,26,70, 18.0
2020-01-31 06:35:00,1,60, NaN
2020-02-01 06:30:00,0,50, NaN
2020-02-02 07:00:00,0,45, NaN
2020-02-03 06:23:00,0,39, NaN
2020-02-04 06:20:00,0,35, NaN
2020-02-05 06:40:00,25,55, 21.0
2020-02-06 06:15:00,7,54, NaN
2020-02-07 06:14:00,0,50, NaN
2020-02-08 06:10:00,0,44, NaN
2020-02-09 06:05:00,0,40, NaN
2020-02-10 06:40:00,0,38, NaN
2020-02-11 06:20:00,2,37, NaN
2020-02-12 06:40:00,17,50, 15.0
2020-02-13 07:08:00,0,45, NaN
2020-02-14 06:55:00,11,52,  9.0
2020-02-15 07:18:00,0,44, NaN
2020-02-16 07:10:00,0,42, NaN
2020-02-17 06:30:00,0,40, NaN
2020-02-18 06:25:00,0,36, NaN
2020-02-19 06:30:00,0,34, NaN
2020-02-20 06:23:00,6,40, NaN
2020-02-21 06:20:00,0,36, NaN
2020-02-22 06:30:00,0,34, NaN
2020-02-23 06:40:00,0,33, NaN
2020-02-24 06:27:00,0,31, NaN
2020-02-25 06:20:00,0,29, NaN
2020-02-26 06:20:00,5,31, NaN
2020-02-27 06:50:00,12,41,  9.0
2020-02-28 06:50:00,18,54, 15.0
2020-02-29 06:55:00,0,49, NaN
2020-03-01 06:45:00,1,40, NaN
2020-03-02 06:30:00,5,40, NaN
2020-03-03 06:45:00,22,54, 20.0
2020-03-04 06:22:00,1,50, NaN
2020-03-06 06:30:00,3,46, NaN
2020-03-07 06:35:00,9,50, NaN
2020-03-08 06:50:00,3,47, NaN
2020-03-09 06:30:00,0,45, NaN
2020-03-10 06:30:00,2,45, NaN
2020-03-11 05:48:00,9,54, NaN
2020-03-12 06:14:00,0,46, NaN
2020-03-13 06:26:00,0,44, NaN
2020-03-14 06:15:00,0,39, NaN
2020-03-15 06:15:00,0,35, NaN
2020-03-16 06:20:00,0,33, NaN
2020-03-17 06:20:00,0,31, NaN
2020-03-18 06:20:00,0,29, NaN
2020-03-19 06:14:00,0,27, NaN
2020-03-20 06:15:00,0,24, NaN
2020-03-21 05:58:00,0,21, NaN
2020-03-22 06:17:00,0,17, NaN
2020-03-23 06:24:00,0,12, NaN
2020-03-24 06:20:00,0,8, NaN
2020-03-25 06:30:00,0,4, NaN
2020-03-26 06:15:00,0,2, NaN
2020-03-27 06:25:00,0,0, NaN
2020-03-28 06:18:00,0,0, NaN
2020-03-29 06:58:00,0,0, NaN
2020-03-30 06:30:00,2,2, NaN
2020-03-31 06:30:00,2,4, NaN
